Year,Month,Day,Hour,Minute,Value (Times are PST for temperature in C)
2021,05,06,00,00,14.70
2021,05,06,00,01,14.70
2021,05,06,00,02,14.70
2021,05,06,00,03,14.70
2021,05,06,00,04,14.70
2021,05,06,00,05,14.70
2021,05,06,00,06,14.70
2021,05,06,00,07,14.70
2021,05,06,00,08,14.60
2021,05,06,00,09,14.60
2021,05,06,00,10,14.60
2021,05,06,00,11,14.50
2021,05,06,00,12,14.50
2021,05,06,00,13,14.50
2021,05,06,00,14,14.40
2021,05,06,00,15,14.40
2021,05,06,00,16,14.40
2021,05,06,00,17,14.40
2021,05,06,00,18,14.40
2021,05,06,00,19,14.40
2021,05,06,00,20,14.40
2021,05,06,00,21,14.40
2021,05,06,00,22,14.40
2021,05,06,00,23,14.40
2021,05,06,00,24,14.40
2021,05,06,00,25,14.30
2021,05,06,00,26,14.30
2021,05,06,00,27,14.30
2021,05,06,00,28,14.30
2021,05,06,00,29,14.30
2021,05,06,00,30,14.30
2021,05,06,00,31,14.20
2021,05,06,00,32,14.20
2021,05,06,00,33,14.20
2021,05,06,00,34,14.20
2021,05,06,00,35,14.20
2021,05,06,00,36,14.20
2021,05,06,00,37,14.20
2021,05,06,00,38,14.20
2021,05,06,00,39,14.20
2021,05,06,00,40,14.20
2021,05,06,00,41,14.20
2021,05,06,00,42,14.20
2021,05,06,00,43,14.20
2021,05,06,00,44,14.20
2021,05,06,00,45,14.20
2021,05,06,00,46,14.20
2021,05,06,00,47,14.20
2021,05,06,00,48,14.10
2021,05,06,00,49,14.10
2021,05,06,00,50,14.10
2021,05,06,00,51,14.10
2021,05,06,00,52,14.10
2021,05,06,00,53,14.10
2021,05,06,00,54,14.20
2021,05,06,00,55,14.20
2021,05,06,00,56,14.20
2021,05,06,00,57,14.20
2021,05,06,00,58,14.20
2021,05,06,00,59,14.20
2021,05,06,01,00,14.20
2021,05,06,01,01,14.20
2021,05,06,01,02,14.20
2021,05,06,01,03,14.20
2021,05,06,01,04,14.20
2021,05,06,01,05,14.20
2021,05,06,01,06,14.20
2021,05,06,01,07,14.20
2021,05,06,01,08,14.10
2021,05,06,01,09,14.10
2021,05,06,01,10,14.10
2021,05,06,01,11,14.00
2021,05,06,01,12,14.00
2021,05,06,01,13,14.00
2021,05,06,01,14,13.90
2021,05,06,01,15,13.90
2021,05,06,01,16,13.80
2021,05,06,01,17,13.80
2021,05,06,01,18,13.70
2021,05,06,01,19,13.70
2021,05,06,01,20,13.70
2021,05,06,01,21,13.60
2021,05,06,01,22,13.50
2021,05,06,01,23,13.40
2021,05,06,01,24,13.30
2021,05,06,01,25,13.10
2021,05,06,01,26,13.00
2021,05,06,01,27,12.90
2021,05,06,01,28,12.80
2021,05,06,01,29,12.70
2021,05,06,01,30,12.60
2021,05,06,01,31,12.60
2021,05,06,01,32,12.50
2021,05,06,01,33,12.40
2021,05,06,01,34,12.40
2021,05,06,01,35,12.30
2021,05,06,01,36,12.20
2021,05,06,01,37,12.20
2021,05,06,01,38,12.20
2021,05,06,01,39,12.10
2021,05,06,01,40,12.10
2021,05,06,01,41,12.10
2021,05,06,01,42,12.00
2021,05,06,01,43,12.00
2021,05,06,01,44,11.90
2021,05,06,01,45,11.90
2021,05,06,01,46,11.90
2021,05,06,01,47,11.90
2021,05,06,01,48,11.80
2021,05,06,01,49,11.80
2021,05,06,01,50,11.80
2021,05,06,01,51,11.80
2021,05,06,01,52,11.80
2021,05,06,01,53,11.70
2021,05,06,01,54,11.70
2021,05,06,01,55,11.70
2021,05,06,01,56,11.70
2021,05,06,01,57,11.70
2021,05,06,01,58,11.70
2021,05,06,01,59,11.70
2021,05,06,02,00,11.70
2021,05,06,02,01,11.60
2021,05,06,02,02,11.60
2021,05,06,02,03,11.60
2021,05,06,02,04,11.60
2021,05,06,02,05,11.60
2021,05,06,02,06,11.60
2021,05,06,02,07,11.60
2021,05,06,02,08,11.60
2021,05,06,02,09,11.60
2021,05,06,02,10,11.60
2021,05,06,02,11,11.60
2021,05,06,02,12,11.60
2021,05,06,02,13,11.60
2021,05,06,02,14,11.60
2021,05,06,02,15,11.50
2021,05,06,02,16,11.50
2021,05,06,02,17,11.50
2021,05,06,02,18,11.50
2021,05,06,02,19,11.50
2021,05,06,02,20,11.50
2021,05,06,02,21,11.50
2021,05,06,02,22,11.50
2021,05,06,02,23,11.50
2021,05,06,02,24,11.50
2021,05,06,02,25,11.50
2021,05,06,02,26,11.50
2021,05,06,02,27,11.50
2021,05,06,02,28,11.50
2021,05,06,02,29,11.50
2021,05,06,02,30,11.50
2021,05,06,02,31,11.50
2021,05,06,02,32,11.50
2021,05,06,02,33,11.50
2021,05,06,02,34,11.50
2021,05,06,02,35,11.50
2021,05,06,02,36,11.50
2021,05,06,02,37,11.50
2021,05,06,02,38,11.50
2021,05,06,02,39,11.40
2021,05,06,02,40,11.50
2021,05,06,02,41,11.50
2021,05,06,02,42,11.50
2021,05,06,02,43,11.50
2021,05,06,02,44,11.50
2021,05,06,02,45,11.50
2021,05,06,02,46,11.50
2021,05,06,02,47,11.50
2021,05,06,02,48,11.50
2021,05,06,02,49,11.50
2021,05,06,02,50,11.50
2021,05,06,02,51,11.50
2021,05,06,02,52,11.50
2021,05,06,02,53,11.50
2021,05,06,02,54,11.50
2021,05,06,02,55,11.50
2021,05,06,02,56,11.50
2021,05,06,02,57,11.50
2021,05,06,02,58,11.50
2021,05,06,02,59,11.50
2021,05,06,03,00,11.60
2021,05,06,03,01,11.60
2021,05,06,03,02,11.60
2021,05,06,03,03,11.60
2021,05,06,03,04,11.60
2021,05,06,03,05,11.60
2021,05,06,03,06,11.60
2021,05,06,03,07,11.50
2021,05,06,03,08,11.50
2021,05,06,03,09,11.50
2021,05,06,03,10,11.50
2021,05,06,03,11,11.50
2021,05,06,03,12,11.50
2021,05,06,03,13,11.50
2021,05,06,03,14,11.50
2021,05,06,03,15,11.50
2021,05,06,03,16,11.50
2021,05,06,03,17,11.50
2021,05,06,03,18,11.50
2021,05,06,03,19,11.50
2021,05,06,03,20,11.50
2021,05,06,03,21,11.40
2021,05,06,03,22,11.40
2021,05,06,03,23,11.40
2021,05,06,03,24,11.30
2021,05,06,03,25,11.30
2021,05,06,03,26,11.30
2021,05,06,03,27,11.30
2021,05,06,03,28,11.30
2021,05,06,03,29,11.30
2021,05,06,03,30,11.30
2021,05,06,03,31,11.30
2021,05,06,03,32,11.30
2021,05,06,03,33,11.30
2021,05,06,03,34,11.30
2021,05,06,03,35,11.40
2021,05,06,03,36,11.40
2021,05,06,03,37,11.40
2021,05,06,03,38,11.40
2021,05,06,03,39,11.40
2021,05,06,03,40,11.40
2021,05,06,03,41,11.40
2021,05,06,03,42,11.40
2021,05,06,03,43,11.40
2021,05,06,03,44,11.40
2021,05,06,03,45,11.40
2021,05,06,03,46,11.40
2021,05,06,03,47,11.40
2021,05,06,03,48,11.40
2021,05,06,03,49,11.40
2021,05,06,03,50,11.40
2021,05,06,03,51,11.40
2021,05,06,03,52,11.40
2021,05,06,03,53,11.40
2021,05,06,03,54,11.40
2021,05,06,03,55,11.40
2021,05,06,03,56,11.40
2021,05,06,03,57,11.40
2021,05,06,03,58,11.40
2021,05,06,03,59,11.40
2021,05,06,04,00,11.40
2021,05,06,04,01,11.40
2021,05,06,04,02,11.40
2021,05,06,04,03,11.40
2021,05,06,04,04,11.40
2021,05,06,04,05,11.40
2021,05,06,04,06,11.40
2021,05,06,04,07,11.40
2021,05,06,04,08,11.40
2021,05,06,04,09,11.40
2021,05,06,04,10,11.40
2021,05,06,04,11,11.40
2021,05,06,04,12,11.40
2021,05,06,04,13,11.30
2021,05,06,04,14,11.30
2021,05,06,04,15,11.30
2021,05,06,04,16,11.40
2021,05,06,04,17,11.40
2021,05,06,04,18,11.40
2021,05,06,04,19,11.40
2021,05,06,04,20,11.40
2021,05,06,04,21,11.40
2021,05,06,04,22,11.40
2021,05,06,04,23,11.40
2021,05,06,04,24,11.40
2021,05,06,04,25,11.40
2021,05,06,04,26,11.40
2021,05,06,04,27,11.40
2021,05,06,04,28,11.40
2021,05,06,04,29,11.40
2021,05,06,04,30,11.40
2021,05,06,04,31,11.40
2021,05,06,04,32,11.40
2021,05,06,04,33,11.40
2021,05,06,04,34,11.40
2021,05,06,04,35,11.40
2021,05,06,04,36,11.40
2021,05,06,04,37,11.40
2021,05,06,04,38,11.40
2021,05,06,04,39,11.40
2021,05,06,04,40,11.40
2021,05,06,04,41,11.40
2021,05,06,04,42,11.40
2021,05,06,04,43,11.40
2021,05,06,04,44,11.40
2021,05,06,04,45,11.40
2021,05,06,04,46,11.40
2021,05,06,04,47,11.40
2021,05,06,04,48,11.40
2021,05,06,04,49,11.40
2021,05,06,04,50,11.40
2021,05,06,04,51,11.40
2021,05,06,04,52,11.40
2021,05,06,04,53,11.40
2021,05,06,04,54,11.40
2021,05,06,04,55,11.40
2021,05,06,04,56,11.40
2021,05,06,04,57,11.40
2021,05,06,04,58,11.40
2021,05,06,04,59,11.40
2021,05,06,05,00,11.40
2021,05,06,05,01,11.40
2021,05,06,05,02,11.40
2021,05,06,05,03,11.40
2021,05,06,05,04,11.30
2021,05,06,05,05,11.30
2021,05,06,05,06,11.30
2021,05,06,05,07,11.30
2021,05,06,05,08,11.30
2021,05,06,05,09,11.30
2021,05,06,05,10,11.20
2021,05,06,05,11,11.20
2021,05,06,05,12,11.20
2021,05,06,05,13,11.20
2021,05,06,05,14,11.20
2021,05,06,05,15,11.20
2021,05,06,05,16,11.20
2021,05,06,05,17,11.20
2021,05,06,05,18,11.20
2021,05,06,05,19,11.10
2021,05,06,05,20,11.10
2021,05,06,05,21,11.10
2021,05,06,05,22,11.10
2021,05,06,05,23,11.10
2021,05,06,05,24,11.10
2021,05,06,05,25,11.10
2021,05,06,05,26,11.10
2021,05,06,05,27,11.10
2021,05,06,05,28,11.00
2021,05,06,05,29,11.00
2021,05,06,05,30,11.00
2021,05,06,05,31,11.00
2021,05,06,05,32,10.90
2021,05,06,05,33,10.90
2021,05,06,05,34,10.90
2021,05,06,05,35,10.90
2021,05,06,05,36,10.90
2021,05,06,05,37,10.90
2021,05,06,05,38,10.90
2021,05,06,05,39,10.90
2021,05,06,05,40,10.90
2021,05,06,05,41,10.90
2021,05,06,05,42,10.90
2021,05,06,05,43,10.90
2021,05,06,05,44,11.00
2021,05,06,05,45,11.00
2021,05,06,05,46,11.00
2021,05,06,05,47,10.90
2021,05,06,05,48,10.90
2021,05,06,05,49,10.90
2021,05,06,05,50,11.00
2021,05,06,05,51,11.00
2021,05,06,05,52,11.00
2021,05,06,05,53,10.90
2021,05,06,05,54,10.90
2021,05,06,05,55,10.90
2021,05,06,05,56,10.90
2021,05,06,05,57,10.90
2021,05,06,05,58,10.90
2021,05,06,05,59,10.90
2021,05,06,06,00,10.80
2021,05,06,06,01,10.80
2021,05,06,06,02,10.80
2021,05,06,06,03,10.80
2021,05,06,06,04,10.80
2021,05,06,06,05,10.80
2021,05,06,06,06,10.80
2021,05,06,06,07,10.80
2021,05,06,06,08,10.80
2021,05,06,06,09,10.80
2021,05,06,06,10,10.80
2021,05,06,06,11,10.80
2021,05,06,06,12,10.80
2021,05,06,06,13,10.70
2021,05,06,06,14,10.70
2021,05,06,06,15,10.70
2021,05,06,06,16,10.70
2021,05,06,06,17,10.70
2021,05,06,06,18,10.70
2021,05,06,06,19,10.80
2021,05,06,06,20,10.80
2021,05,06,06,21,10.80
2021,05,06,06,22,10.80
2021,05,06,06,23,10.80
2021,05,06,06,24,10.80
2021,05,06,06,25,10.80
2021,05,06,06,26,10.80
2021,05,06,06,27,10.80
2021,05,06,06,28,10.80
2021,05,06,06,29,10.80
2021,05,06,06,30,10.80
2021,05,06,06,31,10.70
2021,05,06,06,32,10.70
2021,05,06,06,33,10.70
2021,05,06,06,34,10.70
2021,05,06,06,35,10.70
2021,05,06,06,36,10.70
2021,05,06,06,37,10.70
2021,05,06,06,38,10.70
2021,05,06,06,39,10.70
2021,05,06,06,40,10.70
2021,05,06,06,41,10.70
2021,05,06,06,42,10.70
2021,05,06,06,43,10.70
2021,05,06,06,44,10.70
2021,05,06,06,45,10.70
2021,05,06,06,46,10.70
2021,05,06,06,47,10.70
2021,05,06,06,48,10.80
2021,05,06,06,49,10.80
2021,05,06,06,50,10.80
2021,05,06,06,51,10.80
2021,05,06,06,52,10.80
2021,05,06,06,53,10.80
2021,05,06,06,54,10.80
2021,05,06,06,55,10.80
2021,05,06,06,56,10.80
2021,05,06,06,57,10.80
2021,05,06,06,58,10.80
2021,05,06,06,59,10.80
2021,05,06,07,00,10.80
2021,05,06,07,01,10.80
2021,05,06,07,02,10.80
2021,05,06,07,03,10.80
2021,05,06,07,04,10.80
2021,05,06,07,05,10.80
2021,05,06,07,06,10.80
2021,05,06,07,07,10.80
2021,05,06,07,08,10.80
2021,05,06,07,09,10.70
2021,05,06,07,10,10.70
2021,05,06,07,11,10.70
2021,05,06,07,12,10.70
2021,05,06,07,13,10.70
2021,05,06,07,14,10.70
2021,05,06,07,15,10.70
2021,05,06,07,16,10.70
2021,05,06,07,17,10.70
2021,05,06,07,18,10.70
2021,05,06,07,19,10.70
2021,05,06,07,20,10.70
2021,05,06,07,21,10.70
2021,05,06,07,22,10.70
2021,05,06,07,23,10.70
2021,05,06,07,24,10.70
2021,05,06,07,25,10.70
2021,05,06,07,26,10.70
2021,05,06,07,27,10.70
2021,05,06,07,28,10.70
2021,05,06,07,29,10.70
2021,05,06,07,30,10.70
2021,05,06,07,31,10.70
2021,05,06,07,32,10.70
2021,05,06,07,33,10.70
2021,05,06,07,34,10.70
2021,05,06,07,35,10.70
2021,05,06,07,36,10.70
2021,05,06,07,37,10.70
2021,05,06,07,38,10.70
2021,05,06,07,39,10.70
2021,05,06,07,40,10.80
2021,05,06,07,41,10.80
2021,05,06,07,42,10.80
2021,05,06,07,43,10.80
2021,05,06,07,44,10.80
2021,05,06,07,45,10.80
2021,05,06,07,46,10.80
2021,05,06,07,47,10.80
2021,05,06,07,48,10.80
2021,05,06,07,49,10.80
2021,05,06,07,50,10.90
2021,05,06,07,51,10.90
2021,05,06,07,52,10.90
2021,05,06,07,53,10.90
2021,05,06,07,54,10.90
2021,05,06,07,55,10.90
2021,05,06,07,56,10.90
2021,05,06,07,57,10.90
2021,05,06,07,58,10.90
2021,05,06,07,59,11.00
2021,05,06,08,00,11.00
2021,05,06,08,01,11.00
2021,05,06,08,02,11.00
2021,05,06,08,03,11.00
2021,05,06,08,04,11.00
2021,05,06,08,05,11.10
2021,05,06,08,06,11.10
2021,05,06,08,07,11.10
2021,05,06,08,08,11.10
2021,05,06,08,09,11.10
2021,05,06,08,10,11.10
2021,05,06,08,11,11.10
2021,05,06,08,12,11.10
2021,05,06,08,13,11.10
2021,05,06,08,14,11.10
2021,05,06,08,15,11.10
2021,05,06,08,16,11.20
2021,05,06,08,17,11.20
2021,05,06,08,18,11.20
2021,05,06,08,19,11.20
2021,05,06,08,20,11.20
2021,05,06,08,21,11.20
2021,05,06,08,22,11.20
2021,05,06,08,23,11.20
2021,05,06,08,24,11.20
2021,05,06,08,25,11.20
2021,05,06,08,26,11.20
2021,05,06,08,27,11.20
2021,05,06,08,28,11.20
2021,05,06,08,29,11.20
2021,05,06,08,30,11.30
2021,05,06,08,31,11.30
2021,05,06,08,32,11.30
2021,05,06,08,33,11.30
2021,05,06,08,34,11.30
2021,05,06,08,35,11.30
2021,05,06,08,36,11.30
2021,05,06,08,37,11.40
2021,05,06,08,38,11.40
2021,05,06,08,39,11.40
2021,05,06,08,40,11.40
2021,05,06,08,41,11.40
2021,05,06,08,42,11.40
2021,05,06,08,43,11.40
2021,05,06,08,44,11.40
2021,05,06,08,45,11.50
2021,05,06,08,46,11.50
2021,05,06,08,47,11.50
2021,05,06,08,48,11.50
2021,05,06,08,49,11.50
2021,05,06,08,50,11.50
2021,05,06,08,51,11.50
2021,05,06,08,52,11.60
2021,05,06,08,53,11.60
2021,05,06,08,54,11.60
2021,05,06,08,55,11.60
2021,05,06,08,56,11.60
2021,05,06,08,57,11.60
2021,05,06,08,58,11.60
2021,05,06,08,59,11.60
2021,05,06,09,00,11.60
2021,05,06,09,01,11.60
2021,05,06,09,02,11.60
2021,05,06,09,03,11.60
2021,05,06,09,04,11.70
2021,05,06,09,05,11.70
2021,05,06,09,06,11.70
2021,05,06,09,07,11.70
2021,05,06,09,08,11.70
2021,05,06,09,09,11.70
2021,05,06,09,10,11.70
2021,05,06,09,11,11.80
2021,05,06,09,12,11.80
2021,05,06,09,13,11.80
2021,05,06,09,14,11.80
2021,05,06,09,15,11.80
2021,05,06,09,16,11.80
2021,05,06,09,17,11.80
2021,05,06,09,18,11.80
2021,05,06,09,19,11.90
2021,05,06,09,20,11.90
2021,05,06,09,21,11.90
2021,05,06,09,22,12.00
2021,05,06,09,23,12.00
2021,05,06,09,24,12.10
2021,05,06,09,25,12.10
2021,05,06,09,26,12.10
2021,05,06,09,27,12.10
2021,05,06,09,28,12.20
2021,05,06,09,29,12.20
2021,05,06,09,30,12.20
2021,05,06,09,31,12.30
2021,05,06,09,32,12.30
2021,05,06,09,33,12.30
2021,05,06,09,34,12.30
2021,05,06,09,35,12.40
2021,05,06,09,36,12.40
2021,05,06,09,37,12.40
2021,05,06,09,38,12.40
2021,05,06,09,39,12.50
2021,05,06,09,40,12.50
2021,05,06,09,41,12.60
2021,05,06,09,42,12.60
2021,05,06,09,43,12.60
2021,05,06,09,44,12.70
2021,05,06,09,45,12.70
2021,05,06,09,46,12.80
2021,05,06,09,47,12.80
2021,05,06,09,48,12.80
2021,05,06,09,49,12.80
2021,05,06,09,50,12.90
2021,05,06,09,51,12.90
2021,05,06,09,52,12.90
2021,05,06,09,53,13.00
2021,05,06,09,54,13.00
2021,05,06,09,55,13.00
2021,05,06,09,56,13.10
2021,05,06,09,57,13.10
2021,05,06,09,58,13.10
2021,05,06,09,59,13.10
2021,05,06,10,00,13.10
2021,05,06,10,01,13.10
2021,05,06,10,02,13.20
2021,05,06,10,03,13.20
2021,05,06,10,04,13.20
2021,05,06,10,05,13.20
2021,05,06,10,06,13.30
2021,05,06,10,07,13.30
2021,05,06,10,08,13.30
2021,05,06,10,09,13.30
2021,05,06,10,10,13.30
2021,05,06,10,11,13.40
2021,05,06,10,12,13.40
2021,05,06,10,13,13.40
2021,05,06,10,14,13.40
2021,05,06,10,15,13.50
2021,05,06,10,16,13.50
2021,05,06,10,17,13.50
2021,05,06,10,18,13.50
2021,05,06,10,19,13.60
2021,05,06,10,20,13.60
2021,05,06,10,21,13.60
2021,05,06,10,22,13.60
2021,05,06,10,23,13.70
2021,05,06,10,24,13.70
2021,05,06,10,25,13.70
2021,05,06,10,26,13.70
2021,05,06,10,27,13.80
2021,05,06,10,28,13.80
2021,05,06,10,29,13.80
2021,05,06,10,30,13.90
2021,05,06,10,31,13.90
2021,05,06,10,32,13.90
2021,05,06,10,33,13.90
2021,05,06,10,34,13.90
2021,05,06,10,35,13.90
2021,05,06,10,36,13.90
2021,05,06,10,37,14.00
2021,05,06,10,38,14.10
2021,05,06,10,39,14.10
2021,05,06,10,40,14.10
2021,05,06,10,41,14.10
2021,05,06,10,42,14.10
2021,05,06,10,43,14.10
2021,05,06,10,44,14.20
2021,05,06,10,45,14.20
2021,05,06,10,46,14.30
2021,05,06,10,47,14.40
2021,05,06,10,48,14.50
2021,05,06,10,49,14.50
2021,05,06,10,50,14.60
2021,05,06,10,51,14.70
2021,05,06,10,52,14.70
2021,05,06,10,53,14.80
2021,05,06,10,54,14.80
2021,05,06,10,55,14.80
2021,05,06,10,56,14.90
2021,05,06,10,57,14.90
2021,05,06,10,58,14.90
2021,05,06,10,59,14.90
2021,05,06,11,00,14.90
2021,05,06,11,01,15.00
2021,05,06,11,02,15.00
2021,05,06,11,03,15.00
2021,05,06,11,04,15.10
2021,05,06,11,05,15.10
2021,05,06,11,06,15.10
2021,05,06,11,07,15.10
2021,05,06,11,08,15.10
2021,05,06,11,09,15.10
2021,05,06,11,10,15.20
2021,05,06,11,11,15.20
2021,05,06,11,12,15.20
2021,05,06,11,13,15.20
2021,05,06,11,14,15.30
2021,05,06,11,15,15.30
2021,05,06,11,16,15.30
2021,05,06,11,17,15.30
2021,05,06,11,18,15.30
2021,05,06,11,19,15.30
2021,05,06,11,20,15.20
2021,05,06,11,21,15.20
2021,05,06,11,22,15.20
2021,05,06,11,23,15.10
2021,05,06,11,24,15.10
2021,05,06,11,25,15.00
2021,05,06,11,26,15.00
2021,05,06,11,27,14.90
2021,05,06,11,28,14.90
2021,05,06,11,29,14.90
2021,05,06,11,30,14.90
2021,05,06,11,31,14.90
2021,05,06,11,32,14.80
2021,05,06,11,33,14.80
2021,05,06,11,34,14.80
2021,05,06,11,35,14.80
2021,05,06,11,36,14.80
2021,05,06,11,37,14.70
2021,05,06,11,38,14.80
2021,05,06,11,39,14.80
2021,05,06,11,40,14.80
2021,05,06,11,41,14.80
2021,05,06,11,42,14.80
2021,05,06,11,43,14.80
2021,05,06,11,44,14.80
2021,05,06,11,45,14.80
2021,05,06,11,46,14.80
2021,05,06,11,47,14.80
2021,05,06,11,48,14.80
2021,05,06,11,49,14.80
2021,05,06,11,50,14.80
2021,05,06,11,51,14.80
2021,05,06,11,52,14.80
2021,05,06,11,53,14.80
2021,05,06,11,54,14.80
2021,05,06,11,55,14.80
2021,05,06,11,56,14.80
2021,05,06,11,57,14.80
2021,05,06,11,58,14.90
2021,05,06,11,59,14.90
2021,05,06,12,00,14.90
2021,05,06,12,01,15.00
2021,05,06,12,02,15.00
2021,05,06,12,03,15.10
2021,05,06,12,04,15.10
2021,05,06,12,05,15.20
2021,05,06,12,06,15.20
2021,05,06,12,07,15.30
2021,05,06,12,08,15.30
2021,05,06,12,09,15.30
2021,05,06,12,10,15.30
2021,05,06,12,11,15.30
2021,05,06,12,12,15.20
2021,05,06,12,13,15.20
2021,05,06,12,14,15.20
2021,05,06,12,15,15.10
2021,05,06,12,16,15.10
2021,05,06,12,17,15.10
2021,05,06,12,18,15.10
2021,05,06,12,19,15.10
2021,05,06,12,20,15.10
2021,05,06,12,21,15.10
2021,05,06,12,22,15.20
2021,05,06,12,23,15.20
2021,05,06,12,24,15.20
2021,05,06,12,25,15.20
2021,05,06,12,26,15.30
2021,05,06,12,27,15.30
2021,05,06,12,28,15.40
2021,05,06,12,29,15.50
2021,05,06,12,30,15.50
2021,05,06,12,31,15.60
2021,05,06,12,32,15.70
2021,05,06,12,33,15.70
2021,05,06,12,34,15.80
2021,05,06,12,35,15.80
2021,05,06,12,36,15.90
2021,05,06,12,37,16.00
2021,05,06,12,38,16.10
2021,05,06,12,39,16.20
2021,05,06,12,40,16.30
2021,05,06,12,41,16.30
2021,05,06,12,42,16.40
2021,05,06,12,43,16.50
2021,05,06,12,44,16.60
2021,05,06,12,45,16.70
2021,05,06,12,46,16.80
2021,05,06,12,47,16.90
2021,05,06,12,48,16.90
2021,05,06,12,49,17.00
2021,05,06,12,50,17.00
2021,05,06,12,51,17.00
2021,05,06,12,52,17.00
2021,05,06,12,53,17.00
2021,05,06,12,54,17.00
2021,05,06,12,55,17.00
2021,05,06,12,56,17.10
2021,05,06,12,57,17.10
2021,05,06,12,58,17.10
2021,05,06,12,59,17.10
2021,05,06,13,00,17.20
2021,05,06,13,01,17.20
2021,05,06,13,02,17.30
2021,05,06,13,03,17.30
2021,05,06,13,04,17.30
2021,05,06,13,05,17.30
2021,05,06,13,06,17.30
2021,05,06,13,07,17.30
2021,05,06,13,08,17.30
2021,05,06,13,09,17.20
2021,05,06,13,10,17.10
2021,05,06,13,11,17.00
2021,05,06,13,12,16.90
2021,05,06,13,13,16.90
2021,05,06,13,14,16.90
2021,05,06,13,15,16.90
2021,05,06,13,16,16.90
2021,05,06,13,17,16.80
2021,05,06,13,18,16.80
2021,05,06,13,19,16.80
2021,05,06,13,20,16.70
2021,05,06,13,21,16.70
2021,05,06,13,22,16.60
2021,05,06,13,23,16.60
2021,05,06,13,24,16.50
2021,05,06,13,25,16.50
2021,05,06,13,26,16.40
2021,05,06,13,27,16.40
2021,05,06,13,28,16.50
2021,05,06,13,29,16.50
2021,05,06,13,30,16.50
2021,05,06,13,31,16.60
2021,05,06,13,32,16.60
2021,05,06,13,33,16.70
2021,05,06,13,34,16.70
2021,05,06,13,35,16.70
2021,05,06,13,36,16.70
2021,05,06,13,37,16.80
2021,05,06,13,38,16.80
2021,05,06,13,39,16.80
2021,05,06,13,40,16.90
2021,05,06,13,41,16.90
2021,05,06,13,42,17.00
2021,05,06,13,43,17.00
2021,05,06,13,44,17.10
2021,05,06,13,45,17.10
2021,05,06,13,46,17.20
2021,05,06,13,47,17.20
2021,05,06,13,48,17.20
2021,05,06,13,49,17.20
2021,05,06,13,50,17.20
2021,05,06,13,51,17.20
2021,05,06,13,52,17.20
2021,05,06,13,53,17.20
2021,05,06,13,54,17.20
2021,05,06,13,55,17.10
2021,05,06,13,56,17.10
2021,05,06,13,57,17.10
2021,05,06,13,58,17.00
2021,05,06,13,59,17.00
2021,05,06,14,00,17.00
2021,05,06,14,01,16.90
2021,05,06,14,02,16.90
2021,05,06,14,03,16.90
2021,05,06,14,04,16.80
2021,05,06,14,05,16.80
2021,05,06,14,06,16.70
2021,05,06,14,07,16.60
2021,05,06,14,08,16.60
2021,05,06,14,09,16.60
2021,05,06,14,10,16.50
2021,05,06,14,11,16.40
2021,05,06,14,12,16.40
2021,05,06,14,13,16.30
2021,05,06,14,14,16.30
2021,05,06,14,15,16.20
2021,05,06,14,16,16.20
2021,05,06,14,17,16.20
2021,05,06,14,18,16.10
2021,05,06,14,19,16.10
2021,05,06,14,20,16.10
2021,05,06,14,21,16.10
2021,05,06,14,22,16.00
2021,05,06,14,23,16.00
2021,05,06,14,24,16.00
2021,05,06,14,25,16.00
2021,05,06,14,26,16.00
2021,05,06,14,27,16.00
2021,05,06,14,28,16.00
2021,05,06,14,29,16.00
2021,05,06,14,30,16.10
2021,05,06,14,31,16.10
2021,05,06,14,32,16.10
2021,05,06,14,33,16.10
2021,05,06,14,34,16.10
2021,05,06,14,35,16.10
2021,05,06,14,36,16.10
2021,05,06,14,37,16.10
2021,05,06,14,38,16.10
2021,05,06,14,39,16.10
2021,05,06,14,40,16.10
2021,05,06,14,41,16.00
2021,05,06,14,42,16.00
2021,05,06,14,43,15.90
2021,05,06,14,44,15.90
2021,05,06,14,45,15.80
2021,05,06,14,46,15.70
2021,05,06,14,47,15.70
2021,05,06,14,48,15.60
2021,05,06,14,49,15.50
2021,05,06,14,50,15.40
2021,05,06,14,51,15.40
2021,05,06,14,52,15.30
2021,05,06,14,53,15.30
2021,05,06,14,54,15.30
2021,05,06,14,55,15.30
2021,05,06,14,56,15.20
2021,05,06,14,57,15.20
2021,05,06,14,58,15.20
2021,05,06,14,59,15.20
2021,05,06,15,00,15.10
2021,05,06,15,01,15.10
2021,05,06,15,02,15.10
2021,05,06,15,03,15.00
2021,05,06,15,04,15.00
2021,05,06,15,05,15.00
2021,05,06,15,06,14.90
2021,05,06,15,07,15.00
2021,05,06,15,08,15.00
2021,05,06,15,09,15.00
2021,05,06,15,10,15.00
2021,05,06,15,11,15.10
2021,05,06,15,12,15.10
2021,05,06,15,13,15.10
2021,05,06,15,14,15.20
2021,05,06,15,15,15.20
2021,05,06,15,16,15.20
2021,05,06,15,17,15.30
2021,05,06,15,18,15.30
2021,05,06,15,19,15.30
2021,05,06,15,20,15.40
2021,05,06,15,21,15.40
2021,05,06,15,22,15.40
2021,05,06,15,23,15.50
2021,05,06,15,24,15.50
2021,05,06,15,25,15.50
2021,05,06,15,26,15.50
2021,05,06,15,27,15.50
2021,05,06,15,28,15.40
2021,05,06,15,29,15.40
2021,05,06,15,30,15.40
2021,05,06,15,31,15.30
2021,05,06,15,32,15.30
2021,05,06,15,33,15.30
2021,05,06,15,34,15.20
2021,05,06,15,35,15.20
2021,05,06,15,36,15.20
2021,05,06,15,37,15.20
2021,05,06,15,38,15.10
2021,05,06,15,39,15.10
2021,05,06,15,40,15.10
2021,05,06,15,41,15.10
2021,05,06,15,42,15.10
2021,05,06,15,43,15.10
2021,05,06,15,44,15.10
2021,05,06,15,45,15.10
2021,05,06,15,46,15.00
2021,05,06,15,47,15.00
2021,05,06,15,48,15.00
2021,05,06,15,49,15.00
2021,05,06,15,50,15.10
2021,05,06,15,51,15.00
2021,05,06,15,52,15.00
2021,05,06,15,53,15.00
2021,05,06,15,54,15.00
2021,05,06,15,55,15.00
2021,05,06,15,56,15.00
2021,05,06,15,57,15.00
2021,05,06,15,58,15.00
2021,05,06,15,59,15.00
2021,05,06,16,00,15.00
2021,05,06,16,01,15.00
2021,05,06,16,02,15.00
2021,05,06,16,03,15.00
2021,05,06,16,04,14.90
2021,05,06,16,05,14.90
2021,05,06,16,06,14.90
2021,05,06,16,07,14.90
2021,05,06,16,08,14.90
2021,05,06,16,09,14.90
2021,05,06,16,10,14.90
2021,05,06,16,11,14.90
2021,05,06,16,12,14.90
2021,05,06,16,13,15.00
2021,05,06,16,14,15.00
2021,05,06,16,15,15.00
2021,05,06,16,16,15.10
2021,05,06,16,17,15.10
2021,05,06,16,18,15.10
2021,05,06,16,19,15.20
2021,05,06,16,20,15.20
2021,05,06,16,21,15.20
2021,05,06,16,22,15.30
2021,05,06,16,23,15.30
2021,05,06,16,24,15.30
2021,05,06,16,25,15.40
2021,05,06,16,26,15.40
2021,05,06,16,27,15.50
2021,05,06,16,28,15.50
2021,05,06,16,29,15.60
2021,05,06,16,30,15.60
2021,05,06,16,31,15.70
2021,05,06,16,32,15.70
2021,05,06,16,33,15.70
2021,05,06,16,34,15.80
2021,05,06,16,35,15.80
2021,05,06,16,36,15.80
2021,05,06,16,37,15.80
2021,05,06,16,38,15.80
2021,05,06,16,39,15.80
2021,05,06,16,40,15.70
2021,05,06,16,41,15.70
2021,05,06,16,42,15.70
2021,05,06,16,43,15.70
2021,05,06,16,44,15.70
2021,05,06,16,45,15.70
2021,05,06,16,46,15.70
2021,05,06,16,47,15.70
2021,05,06,16,48,15.70
2021,05,06,16,49,15.70
2021,05,06,16,50,15.60
2021,05,06,16,51,15.60
2021,05,06,16,52,15.50
2021,05,06,16,53,15.50
2021,05,06,16,54,15.40
2021,05,06,16,55,15.40
2021,05,06,16,56,15.40
2021,05,06,16,57,15.40
2021,05,06,16,58,15.30
2021,05,06,16,59,15.30
2021,05,06,17,00,15.20
2021,05,06,17,01,15.20
2021,05,06,17,02,15.10
2021,05,06,17,03,15.10
2021,05,06,17,04,15.00
2021,05,06,17,05,15.00
2021,05,06,17,06,14.90
2021,05,06,17,07,14.80
2021,05,06,17,08,14.80
2021,05,06,17,09,14.70
2021,05,06,17,10,14.70
2021,05,06,17,11,14.70
2021,05,06,17,12,14.60
2021,05,06,17,13,14.60
2021,05,06,17,14,14.40
2021,05,06,17,15,14.30
2021,05,06,17,16,14.20
2021,05,06,17,17,14.10
2021,05,06,17,18,14.00
2021,05,06,17,19,14.00